Location: Peterborough
(44.3091°N, 78.3197°W)
Time: 06:11:31
(UTC-04:00)

Vanguard 1 Rocket - Pass Details

Date: 23 March 2023
Orbit: 655 x 4220 km, 34.3° (Epoch: 04 June)

Event Time Altitude Azimuth Distance (km) Brightness Sun altitude
Rises 23:43:06 0° 225° (SW) 8,397 12.2 -39.9°
Reaches altitude 10° 23:49:47 10° 220° (SW) 7,155 11.7 -40.5°
Enters shadow 23:57:23 23° 209° (SSW) 5,689 11.1 -41.2°
Maximum altitude 00:09:42 41° 160° (SSE) 3,744 - -42.1°
Drops below altitude 10° 00:21:29 10° 95° (E) 4,374 - -42.9°
Sets 00:24:25 0° 88° (E) 4,991 - -43.1°
